EW5546 Weather Reports


time (UTC)temp
C
wind
direction
speed
KPH
gust
KPH
rain 1hr
cm
rain 24hr
cm
rain mn
cm
humidity
%
barometer
mb
20260901203018 17 0.0 0.0 0.00 0.43 0.43 72 1016.1
20260901202024 17 0.0 0.0 0.00 0.43 0.43 72 1016.1
20260901201022 17 0.0 0.0 0.00 0.43 0.43 71 1016.1
20260901200016 17 0.0 0.0 0.00 0.43 0.43 71 1016.1
20260901195024 17 0.0 0.0 0.00 0.43 0.43 71 1016.1
20260901194022 17 0.0 0.0 0.00 0.43 0.43 71 1016.1
20260901193015 17 203 0.0 1.6 0.00 0.43 0.43 71 1016.1
20260901192046 17 0.0 0.0 0.10 0.43 0.43 71 1016.1
20260901191046 17 0.0 0.0 0.10 0.43 0.43 70 1016.1
20260901190038 17 0.0 0.0 0.10 0.43 0.43 69 1016.1
20260901185025 17 203 0.0 1.6 0.10 0.43 0.43 68 1016.1
20260901184017 18 214 1.6 4.8 0.10 0.43 0.43 67 1016.1
20260901183018 18 203 1.6 3.2 0.00 0.30 0.30 64 1016.1
20260901182023 18 223 1.6 3.2 0.00 0.30 0.30 61 1016.1
20260901181022 18 231 0.0 3.2 0.00 0.30 0.30 58 1016.1
20260901180022 19 97 4.8 8.0 0.00 0.30 0.30 55 1015.0
20260901175022 19 229 1.6 1.6 0.00 0.30 0.30 54 1015.0
20260901174026 19 221 1.6 3.2 0.00 0.30 0.30 54 1015.0
20260901172024 20 219 3.2 3.2 0.00 0.30 0.30 53 1015.0
20260901171034 20 218 1.6 3.2 0.00 0.30 0.30 53 1015.0
20260901170025 20 214 3.2 3.2 0.00 0.30 0.30 52 1015.0
20260901165023 20 230 1.6 1.6 0.00 0.30 0.30 52 1014.2
20260901164022 20 228 1.6 4.8 0.00 0.30 0.30 52 1014.0
20260901163015 20 203 1.6 3.2 0.00 0.30 0.30 51 1015.0
20260901162105 20 205 3.2 4.8 0.00 0.30 0.30 51 1015.0
20260901161016 20 203 1.6 1.6 0.00 0.30 0.30 51 1015.0
20260901160023 20 231 1.6 4.8 0.00 0.30 0.30 50 1014.0
20260901155016 20 227 1.6 3.2 0.00 0.30 0.30 50 1014.0
20260901154022 20 239 1.6 3.2 0.00 0.30 0.30 50 1014.0
20260901153024 20 212 1.6 3.2 0.00 0.30 0.30 50 1014.0
20260901152103 20 209 1.6 3.2 0.00 0.30 0.30 49 1014.0
20260901151022 21 293 3.2 4.8 0.00 0.30 0.30 49 1014.0
20260901150016 21 221 1.6 3.2 0.00 0.30 0.30 49 1014.0
20260901145023 21 228 1.6 3.2 0.00 0.30 0.30 50 1014.0
20260901144023 22 203 1.6 3.2 0.00 0.30 0.30 50 1014.0
20260901143042 21 163 1.6 3.2 0.00 0.30 0.30 52 1014.0
20260901142017 21 163 1.6 3.2 0.00 0.30 0.30 54 1014.0
20260901141023 21 242 1.6 3.2 0.00 0.30 0.30 54 1014.0
20260901140026 -17 83 3.2 9.7 0.00 0.30 0.30 1014.0
20260901135023 21 62 1.6 4.8 0.00 0.30 0.30 54 1014.0
20260901134026 22 215 1.6 6.4 0.00 0.30 0.30 55 1014.0
20260901133026 21 68 1.6 4.8 0.00 0.30 0.30 57 1014.0
20260901132023 19 347 1.6 3.2 0.00 0.30 0.30 59 1014.0
20260901131043 20 120 1.6 3.2 0.00 0.30 0.30 59 1014.0
20260901130023 20 241 3.2 3.2 0.00 0.30 0.30 59 1014.0
20260901125024 20 82 3.2 6.4 0.00 0.30 0.30 58 1014.0
20260901124038 -17 217 1.6 3.2 0.00 0.30 0.30 1014.0
20260901123023 20 270 3.2 9.7 0.00 0.30 0.30 61 1014.0
20260901122043 19 324 1.6 4.8 0.20 0.30 0.30 63 1014.0
20260901121020 18 239 4.8 9.7 0.20 0.30 0.30 65 1014.0
20260901120024 18 68 1.6 3.2 0.20 0.30 0.30 65 1014.0
20260901115023 19 0.0 0.0 0.20 0.30 0.30 64 1014.0
20260901114023 19 240 1.6 3.2 0.20 0.30 0.30 62 1014.0
20260901113024 20 274 4.8 11.3 0.20 0.30 0.30 60 1014.0
20260901112042 20 246 1.6 3.2 0.10 0.10 0.10 59 1014.0
20260901111023 20 203 1.6 3.2 0.10 0.10 0.10 60 1014.0
20260901110023 20 203 1.6 1.6 0.00 0.00 0.00 58 1014.0
20260901105028 21 259 3.2 6.4 0.00 0.00 0.00 52 1014.0
20260901104015 21 215 3.2 4.8 0.00 0.00 0.00 49 1014.0
20260901103018 21 77 3.2 3.2 0.00 0.00 0.00 50 1013.0
20260901102025 -17 221 3.2 4.8 0.00 0.00 0.00 1013.0
20260901101020 21 188 3.2 6.4 0.00 0.00 0.00 50 1013.0
20260901100022 21 215 3.2 8.0 0.00 0.00 0.00 49 1014.0
20260901095022 21 226 3.2 4.8 0.00 0.00 0.00 50 1013.5
20260901094022 21 223 4.8 4.8 0.00 0.00 0.00 49 1013.0
20260901093023 21 233 3.2 6.4 0.00 0.00 0.00 49 1013.0
20260901092018 21 238 4.8 4.8 0.00 0.00 0.00 51 1013.0
20260901091016 21 204 4.8 8.0 0.00 0.00 0.00 53 1013.0
20260901090016 21 220 3.2 8.0 0.00 0.00 0.00 53 1013.0
20260901085022 21 221 1.6 3.2 0.00 0.00 0.00 56 1013.0
20260901084015 21 208 3.2 3.2 0.00 0.00 0.00 57 1013.0
20260901083045 20 205 3.2 4.8 0.00 0.00 0.00 56 1013.0
20260901082022 20 216 3.2 3.2 0.00 0.00 0.00 58 1013.0
20260901081023 20 250 3.2 3.2 0.00 0.00 0.00 57 1013.0
20260901080023 20 238 3.2 6.4 0.00 0.00 0.00 58 1013.0
20260901075022 -17 215 3.2 4.8 0.00 0.00 0.00 1013.0
20260901074025 -17 223 0.0 3.2 0.00 0.00 0.00 1013.0
20260901073023 20 203 1.6 3.2 0.00 0.00 0.00 61 1013.0
20260901072023 20 244 1.6 3.2 0.00 0.00 0.00 61 1013.0
20260901071023 20 239 1.6 4.8 0.00 0.00 0.00 63 1013.0
20260901070032 19 215 3.2 4.8 0.00 0.00 0.00 63 1013.0
20260901065105 19 217 1.6 3.2 0.00 0.00 0.00 65 1012.5
20260901064023 19 217 1.6 3.2 0.00 0.00 0.00 65 1012.0
20260901063023 19 171 1.6 3.2 0.00 0.00 0.00 66 1012.0
20260901062022 19 206 1.6 4.8 0.00 0.00 0.00 67 1012.0
20260901061023 18 0.0 0.0 0.00 0.00 0.00 68 1012.0
20260901060026 18 222 1.6 1.6 0.00 0.00 0.00 69 1012.0
20260901055016 18 240 1.6 4.8 0.00 0.00 0.00 70 1012.0
20260901054023 18 242 1.6 3.2 0.00 0.00 0.00 71 1012.0
20260901053024 18 222 1.6 1.6 0.00 0.00 0.00 72 1012.0
20260901052044 18 203 1.6 4.8 0.00 0.00 0.00 72 1012.0
20260901051103 17 203 0.0 1.6 0.00 0.00 0.00 73 1012.0
20260901050044 17 0.0 0.0 0.00 0.00 0.00 74 1012.0
20260901045026 17 0.0 0.0 0.00 0.00 0.00 74 1012.0
20260901044025 17 177 3.2 4.8 0.00 0.00 0.00 74 1012.0
20260901043020 17 217 1.6 1.6 0.00 0.00 0.00 74 1012.0
20260901042045 18 248 0.0 3.2 0.00 0.00 0.00 74 1011.5
20260901041023 18 225 0.0 1.6 0.00 0.00 0.00 75 1011.0
20260901040025 18 0.0 0.0 0.00 0.00 0.00 75 1011.0
20260901035023 18 225 0.0 1.6 0.00 0.00 0.00 75 1011.0
20260901034017 18 203 0.0 3.2 0.00 0.00 0.00 76 1011.0
20260901033018 18 225 0.0 4.8 0.00 0.00 0.00 76 1011.0
20260901032024 18 0.0 0.0 0.00 0.00 0.00 77 1011.0
20260901031023 18 0.0 0.0 0.00 0.00 0.00 77 1011.0
20260901030024 18 235 0.0 1.6 0.00 0.00 0.00 77 1011.0
20260901025018 18 0.0 0.0 0.00 0.00 0.00 78 1011.0
20260901024023 18 293 0.0 1.6 0.00 0.00 0.00 78 1011.0
20260901023024 18 248 0.0 1.6 0.00 0.00 0.00 78 1011.0
20260901022016 18 0.0 0.0 0.00 0.00 0.00 79 1011.0
20260901021015 18 0.0 0.0 0.00 0.00 0.00 79 1011.0
20260901020023 18 0.0 0.0 0.00 0.00 0.00 79 1011.0
20260901015015 18 0.0 0.0 0.00 0.00 0.00 80 1011.0
20260901014022 18 225 0.0 1.6 0.00 0.00 0.00 80 1011.0
20260901013022 18 225 0.0 1.6 0.00 0.00 0.00 80 1011.0
20260901012022 18 0.0 0.0 0.00 0.00 0.00 80 1011.0
20260901011018 18 0.0 0.0 0.00 0.00 0.00 80 1011.0
20260901010054 18 248 0.0 1.6 0.00 0.00 0.00 80 1011.0
20260901005026 18 0.0 0.0 0.00 0.00 0.00 80 1011.0
20260901004022 18 0.0 0.0 0.00 0.00 0.00 80 1011.0
20260901003022 18 0.0 0.0 0.00 0.00 0.00 80 1012.0
20260901002022 18 0.0 0.0 0.00 0.00 0.00 80 1011.5
20260901001018 18 0.0 0.0 0.00 0.00 0.00 80 1011.8
20260901000044 18 0.0 0.0 0.00 0.00 0.00 80 1012.0
20260831235021 18 0.0 0.0 0.00 0.00 0.00 80 1012.0
20260831234042 18 0.0 0.0 0.00 0.00 0.00 81 1012.0
20260831233023 18 0.0 0.0 0.00 0.00 0.00 80 1012.0
20260831232023 18 0.0 0.0 0.00 0.00 0.00 80 1012.0
20260831231021 18 0.0 0.0 0.00 0.00 0.00 80 1012.0
20260831230020 18 0.0 0.0 0.00 0.00 0.00 80 1012.0
20260831225023 18 0.0 0.0 0.00 0.00 0.00 80 1012.0
20260831224020 18 0.0 0.0 0.00 0.00 0.00 80 1012.0
20260831223026 18 0.0 0.0 0.00 0.00 0.00 80 1012.0
20260831222023 18 0.0 0.0 0.00 0.00 0.00 80 1012.0
20260831221017 19 0.0 0.0 0.00 0.00 0.00 80 1012.0
20260831220043 19 0.0 0.0 0.00 0.00 0.00 80 1013.0
20260831215020 19 203 1.6 3.2 0.00 0.00 0.00 80 1012.4
20260831214015 19 0.0 0.0 0.00 0.00 0.00 80 1012.0
20260831213025 19 0.0 0.0 0.00 0.00 0.00 80 1012.0
20260831212023 19 0.0 0.0 0.00 0.00 0.00 80 1012.5
20260831211042 19 0.0 0.0 0.00 0.00 0.00 80 1013.0
20260831210022 19 0.0 0.0 0.00 0.00 0.00 79 1013.0
20260831205017 19 0.0 0.0 0.00 0.00 0.00 79 1013.0
20260831204023 19 0.0 0.0 0.00 0.00 0.00 79 1013.0